カタログに戻る

STARLINK-37325

運用中通信SSO
NORAD 68748·PAYLOAD·🇺🇸 United States

打ち上げ Apr 15, 2026 から Vandenberg Space Force Base

Loading…

次のパス (今後24時間)

TLE

最新Source: CelesTrak SupGP

元期: Sep 14, 2026, 16:01 UTC

1 68748C 26082W   26257.66784722 -.00043763  00000+0 -13587-2 0  2572
2 68748  97.2846 119.8670 0002098  88.0380 122.6768 15.33456109    19

AllMySatでSTARLINK-37325をリアルタイム追跡

Download on the App Store